Location: Artix
(43.4000°N, 0.5500°W)
Time: 05:55:25
(UTC+00:00)

Daily predictions for brighter satellites

Satellite Brightness Start Highest point End
(mag) Time Altitude Azimuth Time Altitude Azimuth Time Altitude Azimuth
CZ-2D R/B 4.4 02:25:09 10° N 02:26:25 17° N 02:26:25 17° N
Resurs 1-4 Rocket 4.4 02:26:33 10° N 02:27:36 16° N 02:27:36 16° N
IDEFIX/ARIANE 42P 4.4 02:47:45 10° N 02:49:43 23° N 02:49:43 23° N
BREEZE-M DEB (TANK) 3.8 03:08:22 52° SE 03:08:22 52° SE 03:17:17 10° SE
IRS-1D 4.3 03:06:25 10° N 03:10:11 47° N 03:10:11 47° N
ATLAS CENTAUR R/B 3.2 03:12:27 31° ESE 03:12:36 31° ESE 03:16:54 10° NE
ADEOS II 3.9 03:15:41 10° N 03:17:31 19° NNW 03:17:31 19° NNW
Atlas Centaur 2 3.9 03:21:38 32° S 03:21:38 32° S 03:28:07 10° ESE
Cosmos 1666 Rocket 4.4 03:23:26 10° N 03:27:48 50° ENE 03:30:03 26° SE
Meteor 1-14 Rocket 4.1 03:24:22 10° NNW 03:30:17 77° W 03:30:17 77° W
USA 307 3.7 03:32:44 48° NE 03:32:44 48° NE 03:35:49 10° NE
Cosmos 1833 Rocket 2.6 03:32:50 72° S 03:33:26 86° ESE 03:39:08 10° NNE
CZ-2C R/B 2.4 03:31:51 10° NNE 03:36:52 77° ESE 03:37:31 65° SSE
Cosmos 1151 Rocket 3.4 03:39:15 57° NNE 03:39:15 57° NNE 03:42:42 10° N
Cosmos 2360 4.3 03:33:25 10° NNW 03:39:09 74° ENE 03:44:50 10° SSE
FENGYUN 3A 3.5 03:36:18 10° N 03:41:38 66° WNW 03:41:44 66° W
DELTA 2 R/B (1) 4.0 03:42:52 46° S 03:43:23 47° SSE 03:48:44 10° E
USA 306 3.3 03:44:56 52° N 03:44:56 52° N 03:48:22 10° NE
Meteor 1-11 Rocket 4.2 03:38:37 10° N 03:44:34 63° ENE 03:50:26 10° SSE
Cosmos 2082 Rocket 3.1 03:46:10 16° S 03:50:25 46° ESE 03:55:46 10° NE
ARIANE 5 R/B 2.9 03:46:04 10° NNE 03:51:03 61° E 03:54:46 18° S
Cosmos 1153 Rocket 4.4 03:46:36 19° S 03:51:11 84° E 03:57:25 10° N
RUBIN 8/PSLV 4.4 03:51:43 10° N 03:56:03 71° WNW 03:56:07 71° W
ALOS 2.4 03:52:00 10° N 03:56:17 52° WNW 03:56:17 52° WNW
USA 234 4.3 03:51:50 10° ENE 03:57:54 40° SE 04:03:24 12° SSW
COSMOS 2406 3.4 03:55:00 26° S 03:58:12 71° ESE 04:03:51 10° NNE
Cosmos 1470 Rocket 4.3 03:54:48 10° N 03:59:03 51° ENE 04:03:17 10° SSE
H-2A ROCKET BODY 4.0 03:57:07 18° S 03:59:07 21° SSE 04:08:31 10° SE
Cosmos 1697 Rocket 2.5 03:53:48 10° NNW 03:59:29 79° WSW 04:05:07 10° SSE
METEOR-M 4.0 03:56:34 10° NNE 04:01:58 88° WNW 04:05:23 23° SSW
Helios 1B rocket 2.2 03:58:35 10° N 04:02:40 76° WNW 04:03:02 68° SW
Cosmos 676 Rocket 4.2 03:57:34 10° NNW 04:02:49 74° ENE 04:08:03 10° SSE
Cosmos 1447 Rocket 4.4 03:58:06 10° NNW 04:04:22 69° W 04:10:34 10° S
ERBS 4.4 04:06:51 15° N 04:06:51 15° N 04:07:50 10° NNE
CZ-2C R/B 2.6 04:01:23 10° SSE 04:06:35 82° ENE 04:11:55 10° NNW
USA 308 3.1 04:06:20 50° NW 04:06:37 51° NNW 04:10:40 10° NE
IRS-P3 4.1 04:01:16 10° NNE 04:06:39 88° ESE 04:11:04 15° SSW
CZ-2D R/B 3.7 04:03:33 10° NNE 04:07:29 63° ESE 04:10:29 17° S
BREEZE-M DEB (TANK) 2.9 04:07:53 31° N 04:07:53 31° N 04:10:47 10° ENE
Cosmos 1624 Rocket 4.0 04:06:31 41° SW 04:08:16 66° WNW 04:13:36 10° NNE
Cosmos 1743 2.6 04:05:36 10° N 04:09:24 87° E 04:13:12 10° S
Meteor 2-6 Rocket 4.5 04:10:13 39° W 04:10:51 41° WNW 04:16:03 10° N
Cosmos 1441 Rocket 2.9 04:12:34 50° SSW 04:13:27 83° W 04:17:12 10° N
Cosmos 1536 2.7 04:11:27 10° N 04:15:31 82° W 04:19:32 10° S
Envisat 3.4 04:12:38 10° NNE 04:17:41 62° E 04:22:41 10° S
Meteor 1-4 Rocket 2.4 04:15:00 10° NNW 04:18:38 81° W 04:22:16 10° S
Cosmos 1371 Rocket 4.3 04:20:33 34° WSW 04:22:20 46° WNW 04:27:25 10° N
Cosmos 1346 Rocket 3.1 04:22:51 43° W 04:23:15 44° WNW 04:27:05 10° N
Cosmos 1459 Rocket 4.0 04:27:26 10° S 04:33:47 81° W 04:40:12 10° N
SL-08 R/B 3.2 04:29:36 10° S 04:34:15 76° WSW 04:38:59 10° NNW
USA 305 3.9 04:33:26 24° WNW 04:34:56 31° NNW 04:38:39 10° NE
DELTA 2 DEB (DPAF) 4.1 04:31:10 10° S 04:35:30 58° WSW 04:39:52 10° NNW
H-2A R/B 3.2 04:32:08 10° NNE 04:35:43 57° E 04:39:19 10° S
CENTAUR R/B 2.7 04:31:34 10° SSW 04:37:09 67° ESE 04:43:56 10° NE
Cosmos 1980 Rocket 2.1 04:33:47 10° NNW 04:39:23 76° WSW 04:44:57 10° SSE
Cosmos 1802 Rocket 4.0 04:35:28 10° S 04:41:51 88° W 04:48:14 10° N
Meteor 2-9 Rocket 4.3 04:36:28 10° N 04:42:16 82° E 04:47:52 10° SSE
Meteor 1-29 2.7 04:39:10 10° N 04:42:28 78° WNW 04:45:45 10° SSW
X-37B 0.6 04:42:04 33° WNW 04:43:06 59° N 04:45:59 10° E
Meteor 1-27 Rocket 3.9 04:37:32 10° SSW 04:43:10 54° WNW 04:48:56 10° N
CZ-2C R/B 3.3 04:39:48 10° NNE 04:45:37 86° ESE 04:51:10 10° SSW
Cosmos 2346 Rocket 4.4 04:39:57 10° NNW 04:45:54 61° W 04:51:53 10° S
Cosmos 2369 3.7 04:40:19 10° NNW 04:45:56 63° WSW 04:51:29 10° S
Cosmos 1850 Rocket 4.3 04:42:28 10° NNW 04:47:49 72° ENE 04:53:09 10° SSE
YAOGAN 6 2.9 04:47:41 10° N 04:51:09 43° WNW 04:54:35 10° SW
ATLAS CENTAUR R/B 2.4 04:48:27 20° WSW 04:51:16 39° NW 04:55:50 10° NNE
Cosmos 1725 Rocket 4.1 04:45:27 10° S 04:51:45 85° E 04:58:07 10° N
Cosmos 2056 Rocket 4.4 04:50:11 19° WSW 04:52:42 28° WNW 04:57:05 10° N
Cosmos 1633 Rocket 4.1 04:49:17 10° NW 04:52:46 24° W 04:56:13 10° SW
Cosmos 2278 3.9 04:47:49 10° NNW 04:53:31 78° ENE 04:59:08 10° SSE
CZ-4C R/B 3.4 04:50:11 10° S 04:54:18 81° WSW 04:58:37 10° NNW
NOSS 3-2 (C) 4.2 04:49:58 10° S 04:55:02 47° ESE 05:00:51 10° NE
SL-16 R/B 3.6 04:51:35 10° NNW 04:56:58 42° ENE 05:02:19 10° SE
NOSS 3-2 (A) 3.2 04:52:08 10° SW 04:57:30 88° NW 05:03:47 10° NE
Okean 1 3.4 04:54:24 10° SSW 04:58:22 57° W 05:02:22 10° N
Cosmos 44 Rocket 3.5 04:57:34 14° WSW 05:01:26 47° NW 05:06:00 10° NNE
BREEZE-M DEB (TANK) 2.7 04:59:06 15° WNW 05:01:33 78° SSW 05:09:46 10° SE
Cosmos 1461 2.9 04:59:08 10° SSW 05:03:05 80° ESE 05:07:14 10° NE
NOAA 11 4.2 04:57:54 10° NNE 05:03:25 88° ESE 05:08:53 10° SSW
Cosmos 1933 Rocket 3.7 04:59:48 10° NNW 05:04:08 53° W 05:08:24 10° S
Cosmos 2173 Rocket 4.2 04:58:51 10° SSW 05:04:41 45° WNW 05:10:31 10° N
GP-B 3.3 05:02:55 10° SSW 05:07:13 50° W 05:11:32 10° NNW
Cosmos 1484 Rocket 3.9 05:06:07 10° NNW 05:09:24 25° WNW 05:12:40 10° SW
Atlas Centaur 2 4.1 05:04:08 11° WSW 05:10:05 25° SSW 05:15:38 10° SE
USA 238 DEB 4.2 05:04:39 10° SSW 05:10:52 60° ESE 05:17:29 10° NE
USA 238 4.2 05:04:46 10° SSW 05:10:59 59° ESE 05:17:35 10° NE
USA 307 4.3 05:08:19 12° WNW 05:11:30 25° NNW 05:15:01 10° NE
Spot 4 Rocket 4.2 05:08:10 10° N 05:13:07 50° WNW 05:18:03 10° SW
SJ-6F 4.4 05:09:06 10° N 05:13:16 74° WNW 05:17:22 10° SSW
CZ-2C R/B 4.1 05:11:44 10° NNW 05:14:22 15° WNW 05:16:52 10° W
PSLV R/B 3.6 05:10:36 10° N 05:14:52 61° WNW 05:19:06 10° SSW
Cosmos 1741 Rocket 4.0 05:11:09 10° NNW 05:16:21 69° WSW 05:21:31 10° S
SKYMED 2 3.6 05:12:43 10° SSE 05:17:03 88° ENE 05:21:26 10° NNW
Cosmos 1833 Rocket 4.3 05:14:34 11° W 05:18:08 18° NW 05:21:54 10° N
SL-24 R/B - RUBIN 2 3.6 05:16:32 10° SSW 05:21:00 88° SE 05:25:23 10° NE
CZ-4B R/B 3.6 05:16:23 10° NNE 05:21:39 89° WNW 05:26:55 10° SSW
Cosmos 1975 2.7 05:20:42 10° NNW 05:24:42 74° W 05:28:38 10° S
SJ-12 3.9 05:22:15 10° N 05:26:18 67° WNW 05:30:21 10° SSW
Cosmos 2228 Rocket 3.1 05:21:53 10° SSW 05:26:23 78° W 05:30:51 10° N
CZ-3 R/B 3.7 05:10:38 10° WSW 05:28:12 34° S 05:34:28 10° SE
DELTA 2 R/B (1) 3.9 05:23:59 10° W 05:29:29 59° S 05:34:59 10° ESE
ARIANE 5 R/B 3.9 05:26:18 10° NNW 05:29:39 18° WNW 05:32:59 10° WSW
BREEZE M DEB (TANK) 4.3 05:17:11 10° WNW 05:33:10 58° N 05:37:19 10° E
